Portland, ME

5:09 AM EDT on June 27, 2017 (GMT -0400)
Portland International

Weather History for KPWM - August, 2014

Change the Weather History Date:

Tuesday, August 26, 2014

  Actual Average Record
Temperature  
Mean Temperature 70 °F 67 °F  
Max Temperature 81 °F 76 °F 100 °F (1948)
Min Temperature 59 °F 57 °F 41 °F (1942)
Degree Days  
Heating Degree Days 0 1  
Month to date heating degree days 16 17  
Since 1 June heating degree days 93 140  
Since 1 July heating degree days 16 34  
Cooling Degree Days 5 3  
Month to date cooling degree days 60 107  
Year to date cooling degree days 275 315  
Since 1 June cooling degree days 275 308  
Growing Degree Days 20 (Base 50)    
Moisture  
Dew Point 63 °F    
Average Humidity 82    
Maximum Humidity 100    
Minimum Humidity 64    
Precipitation  
Precipitation 0.00 in 0.10 in 1.30 in (1892)
Month to date precipitation 7.13 2.65  
Year to date precipitation 36.77 29.25  
Snow  
Snow 0.00 in 0.00 in 0.00 in (2002)
Month to date snowfall 0.0 0.0  
Since 1 June snowfall 0.0 0.0  
Since 1 July snowfall 0.0 0.0  
Snow Depth 0.00 in    
Sea Level Pressure  
Sea Level Pressure 30.09 in    
Wind  
Wind Speed 6 mph (South)    
Max Wind Speed 16 mph    
Max Gust Speed 21 mph    
Visibility 10 miles    
Events      
T = Trace of Precipitation, MM = Missing Value Source: NWS Daily Summary

Daily Weather History Graph

Daily Weather History Graph

Search for Another Location

Airport or City:

Trip Planner

Search our weather history database for the weather conditions in past years. The results will help you decide how hot, cold, wet, or windy it might be!

Date:

Astronomy

Aug. 26, 2014 Rise Set
Actual Time 5:58 AM EDT 7:27 PM EDT
Civil Twilight 5:28 AM EDT 7:57 PM EDT
Nautical Twilight 4:51 AM EDT 8:33 PM EDT
Astronomical Twilight 4:13 AM EDT 9:11 PM EDT
Moon 6:58 AM EDT (8/26) 7:42 PM EDT (8/26)
Length of Visible Light 14h 28m
Length of Day
13h 28m
New Moon, 1% of the Moon is Illuminated
Aug 26
New Moon
Sep 2
First Quarter
Sep 8
Full
Sep 15
Last Quarter
Sep 24
New

Hourly Weather History & Observations

Time (EDT) Temp. Dew Point Humidity Pressure Visibility Wind Dir Wind Speed Gust Speed Precip Events Conditions
12:51 AM 66.0 °F 62.1 °F 87% 30.13 in 10.0 mi WSW 3.5 mph - N/A   Clear
1:51 AM 64.9 °F 62.1 °F 90% 30.13 in 9.0 mi South 3.5 mph - N/A   Clear
2:51 AM 64.0 °F 62.1 °F 93% 30.12 in 9.0 mi South 3.5 mph - N/A   Clear
3:51 AM 62.1 °F 60.1 °F 93% 30.12 in 9.0 mi West 3.5 mph - N/A   Clear
4:51 AM 61.0 °F 60.1 °F 97% 30.12 in 10.0 mi Calm Calm - N/A   Clear
5:51 AM 59.0 °F 57.0 °F 93% 30.13 in 6.0 mi Calm Calm - N/A   Partly Cloudy
6:51 AM 61.0 °F 59.0 °F 93% 30.14 in 7.0 mi Calm Calm - N/A   Clear
7:51 AM 66.0 °F 61.0 °F 84% 30.15 in 10.0 mi Calm Calm - N/A   Clear
8:51 AM 72.0 °F 64.0 °F 76% 30.15 in 8.0 mi Variable 3.5 mph - N/A   Clear
9:51 AM 75.0 °F 63.0 °F 66% 30.14 in 10.0 mi SSE 4.6 mph - N/A   Clear
10:51 AM 78.1 °F 66.0 °F 66% 30.14 in 10.0 mi SE 4.6 mph - N/A   Clear
11:51 AM 79.0 °F 66.9 °F 66% 30.12 in 10.0 mi SSE 8.1 mph - N/A   Partly Cloudy
12:51 PM 79.0 °F 66.0 °F 64% 30.12 in 10.0 mi South 12.7 mph - N/A   Partly Cloudy
1:51 PM 78.1 °F 66.0 °F 66% 30.10 in 10.0 mi SSE 12.7 mph - N/A   Scattered Clouds
2:51 PM 78.1 °F 66.0 °F 66% 30.08 in 10.0 mi South 9.2 mph - N/A   Partly Cloudy
3:51 PM 77.0 °F 64.9 °F 66% 30.06 in 10.0 mi SSE 12.7 mph - N/A   Partly Cloudy
4:51 PM 77.0 °F 64.0 °F 64% 30.05 in 10.0 mi South 9.2 mph - N/A   Partly Cloudy
5:51 PM 72.0 °F 62.1 °F 71% 30.03 in 10.0 mi South 10.4 mph - N/A   Partly Cloudy
6:51 PM 71.1 °F 61.0 °F 70% 30.03 in 10.0 mi South 9.2 mph - N/A   Partly Cloudy
7:51 PM 69.1 °F 61.0 °F 75% 30.02 in 10.0 mi South 8.1 mph - N/A   Partly Cloudy
8:51 PM 68.0 °F 61.0 °F 78% 30.03 in 10.0 mi SSW 8.1 mph - N/A   Partly Cloudy
9:51 PM 68.0 °F 62.1 °F 81% 30.01 in 10.0 mi South 8.1 mph - N/A   Clear
10:51 PM 66.2 °F 62.6 °F 88% 30.00 in 10.0 mi South 5.8 mph - N/A   Clear
11:51 PM 66.9 °F 63.0 °F 87% 29.99 in 10.0 mi SSW 4.6 mph - N/A   Clear